When you browse on this site, cookies collect data to enhance your experience and personalize the content and advertising you see.
Visit our Privacy Policy to learn more. By continuing to use the site, you agree to this use of cookies and data.
  • In Hungary
  • List of Countries
  • For 7 days
  • Water Temperature
  • Satellite Maps
  • Weather Map
  • News
  • Weather Widgets
  • user-avatar
    Login

    Hourly Weather Godollo

    Today, 27 June, Thursday

    Time Temperature Precipitation Wind Pressure Humidity
    00:00 +25°C° 0 mm 2 mps 742 mmHg 73%
    01:00 +25°C° 0 mm 2 mps 742 mmHg 73%
    02:00 +24°C° 0 mm 2 mps 742 mmHg 75%
    03:00 +24°C° 0 mm 2 mps 741 mmHg 76%
    04:00 +24°C° 0 mm 2 mps 741 mmHg 77%
    05:00 +25°C° 0 mm 2 mps 741 mmHg 75%
    06:00 +26°C° 0 mm 2 mps 741 mmHg 72%
    07:00 +27°C° 0 mm 2 mps 741 mmHg 69%
    08:00 +29°C° 0 mm 3 mps 741 mmHg 66%
    09:00 +30°C° 0 mm 3 mps 741 mmHg 63%
    10:00 +33°C° 0 mm 3 mps 740 mmHg 60%
    11:00 +34°C° 0.3 mm 4 mps 740 mmHg 58%
    12:00 +34°C° 0.3 mm 5 mps 740 mmHg 56%
    13:00 +35°C° 0.3 mm 6 mps 739 mmHg 54%
    14:00 +34°C° 0 mm 6 mps 739 mmHg 54%
    15:00 +33°C° 0 mm 6 mps 739 mmHg 54%
    16:00 +32°C° 0 mm 6 mps 738 mmHg 53%
    17:00 +30°C° 0 mm 6 mps 738 mmHg 57%
    18:00 +28°C° 0 mm 5 mps 738 mmHg 61%
    19:00 +26°C° 0 mm 5 mps 738 mmHg 65%
    20:00 +25°C° 0 mm 4 mps 739 mmHg 58%
    21:00 +23°C° 0 mm 4 mps 739 mmHg 51%
    22:00 +22°C° 0 mm 4 mps 740 mmHg 44%
    23:00 +20°C° 0 mm 3 mps 740 mmHg 48%

    Tomorrow, 28 June, Friday

    Time Temperature Precipitation Wind Pressure Humidity
    00:00 +19°C° 0 mm 3 mps 740 mmHg 53%
    01:00 +18°C° 0 mm 2 mps 740 mmHg 57%
    02:00 +17°C° 0 mm 2 mps 740 mmHg 59%
    03:00 +17°C° 0 mm 2 mps 740 mmHg 62%
    04:00 +16°C° 0 mm 2 mps 740 mmHg 64%
    05:00 +17°C° 0 mm 3 mps 740 mmHg 64%
    06:00 +18°C° 0 mm 3 mps 741 mmHg 64%
    07:00 +19°C° 0 mm 3 mps 741 mmHg 64%
    08:00 +20°C° 0 mm 3 mps 741 mmHg 60%
    09:00 +23°C° 0 mm 2 mps 741 mmHg 56%
    10:00 +24°C° 0 mm 2 mps 741 mmHg 52%
    11:00 +25°C° 0 mm 2 mps 741 mmHg 50%
    12:00 +25°C° 0 mm 2 mps 741 mmHg 49%
    13:00 +25°C° 0 mm 1 mps 741 mmHg 48%
    14:00 +26°C° 0 mm 1 mps 741 mmHg 48%
    15:00 +26°C° 0 mm 1 mps 741 mmHg 48%
    16:00 +26°C° 0 mm 1 mps 741 mmHg 49%
    17:00 +25°C° 0 mm 1 mps 741 mmHg 53%
    18:00 +24°C° 0 mm 1 mps 741 mmHg 57%
    19:00 +23°C° 0 mm 1 mps 741 mmHg 61%
    20:00 +22°C° 0 mm 1 mps 741 mmHg 64%
    21:00 +20°C° 0 mm 1 mps 742 mmHg 66%
    22:00 +18°C° 0 mm 2 mps 742 mmHg 68%
    23:00 +18°C° 0 mm 1 mps 742 mmHg 70%

    Day after tomorrow, 29 June, Saturday

    Time Temperature Precipitation Wind Pressure Humidity
    00:00 +18°C° 0 mm 1 mps 742 mmHg 72%
    01:00 +16°C° 0 mm 1 mps 742 mmHg 74%
    02:00 +16°C° 0 mm 1 mps 742 mmHg 75%
    03:00 +16°C° 0 mm 1 mps 742 mmHg 76%
    04:00 +16°C° 0 mm 1 mps 742 mmHg 77%
    05:00 +18°C° 0 mm 1 mps 742 mmHg 74%
    06:00 +19°C° 0 mm 1 mps 742 mmHg 71%
    07:00 +20°C° 0 mm 1 mps 742 mmHg 68%
    08:00 +22°C° 0 mm 1 mps 742 mmHg 65%
    09:00 +23°C° 0 mm 1 mps 743 mmHg 61%
    10:00 +24°C° 0 mm 2 mps 743 mmHg 57%
    11:00 +25°C° 0 mm 2 mps 743 mmHg 54%
    12:00 +26°C° 0 mm 2 mps 743 mmHg 52%
    13:00 +26°C° 0 mm 2 mps 742 mmHg 49%
    14:00 +26°C° 0 mm 2 mps 742 mmHg 49%
    15:00 +26°C° 0 mm 2 mps 742 mmHg 48%
    16:00 +26°C° 0 mm 2 mps 742 mmHg 48%
    17:00 +25°C° 0 mm 2 mps 742 mmHg 53%
    18:00 +24°C° 0 mm 2 mps 742 mmHg 58%
    19:00 +23°C° 0 mm 2 mps 742 mmHg 63%
    20:00 +21°C° 0 mm 2 mps 742 mmHg 64%
    21:00 +21°C° 0 mm 1 mps 742 mmHg 65%
    22:00 +20°C° 0 mm 1 mps 742 mmHg 67%
    23:00 +19°C° 0 mm 1 mps 742 mmHg 66%

    30 June, Sunday

    Time Temperature Precipitation Wind Pressure Humidity
    00:00 +19°C° 0 mm 1 mps 742 mmHg 66%
    01:00 +18°C° 0 mm 1 mps 742 mmHg 66%
    02:00 +18°C° 0 mm 1 mps 742 mmHg 67%
    03:00 +18°C° 0 mm 1 mps 742 mmHg 68%
    04:00 +16°C° 0 mm 1 mps 742 mmHg 69%
    05:00 +19°C° 0 mm 1 mps 742 mmHg 67%
    06:00 +20°C° 0 mm 1 mps 742 mmHg 65%
    07:00 +22°C° 0 mm 1 mps 742 mmHg 63%
    08:00 +23°C° 0 mm 1 mps 742 mmHg 60%
    09:00 +25°C° 0 mm 1 mps 743 mmHg 56%
    10:00 +27°C° 0 mm 1 mps 743 mmHg 53%
    11:00 +27°C° 0 mm 2 mps 743 mmHg 51%
    12:00 +28°C° 0 mm 2 mps 743 mmHg 48%
    13:00 +29°C° 0 mm 2 mps 742 mmHg 45%
    14:00 +29°C° 0 mm 2 mps 742 mmHg 47%
    15:00 +29°C° 0 mm 2 mps 742 mmHg 48%
    16:00 +29°C° 0 mm 3 mps 742 mmHg 50%
    17:00 +28°C° 0 mm 2 mps 742 mmHg 55%
    18:00 +26°C° 0 mm 2 mps 741 mmHg 61%
    19:00 +25°C° 0 mm 2 mps 741 mmHg 66%
    20:00 +24°C° 0 mm 2 mps 741 mmHg 69%
    21:00 +23°C° 0 mm 2 mps 742 mmHg 71%
    22:00 +22°C° 0 mm 1 mps 742 mmHg 73%
    23:00 +22°C° 0 mm 1 mps 742 mmHg 75%

    1 July, Monday

    Time Temperature Precipitation Wind Pressure Humidity
    00:00 +21°C° 0 mm 1 mps 741 mmHg 77%
    01:00 +21°C° 0 mm 1 mps 741 mmHg 79%
    02:00 +21°C° 0 mm 1 mps 741 mmHg 80%
    03:00 +20°C° 0 mm 1 mps 741 mmHg 81%
    04:00 +20°C° 0 mm 1 mps 741 mmHg 82%
    05:00 +20°C° 0 mm 2 mps 741 mmHg 76%
    06:00 +21°C° 0 mm 2 mps 741 mmHg 71%
    07:00 +24°C° 0 mm 2 mps 741 mmHg 65%
    08:00 +25°C° 0 mm 3 mps 741 mmHg 61%
    09:00 +27°C° 0 mm 3 mps 741 mmHg 56%
    10:00 +28°C° 0 mm 3 mps 741 mmHg 52%
    11:00 +29°C° 0 mm 3 mps 741 mmHg 50%
    12:00 +30°C° 0 mm 4 mps 741 mmHg 49%
    13:00 +32°C° 0 mm 4 mps 740 mmHg 48%
    14:00 +32°C° 0 mm 4 mps 740 mmHg 49%
    15:00 +32°C° 0 mm 4 mps 740 mmHg 51%
    16:00 +32°C° 0 mm 4 mps 739 mmHg 52%
    17:00 +30°C° 0 mm 3 mps 739 mmHg 57%
    18:00 +28°C° 0 mm 3 mps 739 mmHg 61%
    19:00 +27°C° 0 mm 3 mps 738 mmHg 66%
    20:00 +26°C° 0 mm 2 mps 738 mmHg 69%
    21:00 +25°C° 0 mm 2 mps 738 mmHg 71%
    22:00 +24°C° 0 mm 2 mps 738 mmHg 74%
    23:00 +24°C° 0 mm 2 mps 738 mmHg 74%

    2 July, Tuesday

    Time Temperature Precipitation Wind Pressure Humidity
    00:00 +24°C° 0 mm 2 mps 738 mmHg 74%
    01:00 +24°C° 0 mm 2 mps 738 mmHg 75%
    02:00 +23°C° 0.7 mm 2 mps 738 mmHg 77%
    03:00 +21°C° 0.7 mm 2 mps 738 mmHg 79%
    04:00 +22°C° 0.7 mm 1 mps 738 mmHg 82%
    05:00 +23°C° 0 mm 1 mps 738 mmHg 79%
    06:00 +24°C° 0 mm 1 mps 738 mmHg 76%
    07:00 +25°C° 0 mm 1 mps 738 mmHg 73%
    08:00 +27°C° 0 mm 2 mps 738 mmHg 70%
    09:00 +28°C° 0 mm 3 mps 739 mmHg 67%
    10:00 +29°C° 0 mm 4 mps 739 mmHg 64%
    11:00 +30°C° 0 mm 4 mps 739 mmHg 59%
    12:00 +32°C° 0 mm 5 mps 739 mmHg 54%
    13:00 +32°C° 0 mm 6 mps 739 mmHg 49%
    14:00 +32°C° 0 mm 6 mps 739 mmHg 49%
    15:00 +30°C° 0 mm 6 mps 739 mmHg 49%
    16:00 +30°C° 0 mm 6 mps 739 mmHg 49%
    17:00 +28°C° 0 mm 5 mps 739 mmHg 53%
    18:00 +27°C° 0 mm 5 mps 739 mmHg 58%
    19:00 +25°C° 0 mm 5 mps 739 mmHg 62%
    20:00 +23°C° 0 mm 4 mps 739 mmHg 63%
    21:00 +22°C° 0 mm 3 mps 740 mmHg 64%
    22:00 +21°C° 0 mm 3 mps 740 mmHg 65%
    23:00 +20°C° 0 mm 3 mps 740 mmHg 69%
    Show more